Location: Franzen
(48.6167°N, 15.3833°E)
Time: 16:20:47
(UTC+00:00)

Cosmos 2219 - Pass Details

Date: 03 August 2021
Orbit: 834 x 860 km, 71.1° (Epoch: 18 September)

Event Time Altitude Azimuth Distance (km) Brightness Sun altitude
Exits shadow 23:15:57 34° 246° (WSW) 1,392 4.1 -24.1°
Maximum altitude 23:18:13 53° 304° (NW) 1,051 3.8 -24.1°
Drops below altitude 10° 23:23:51 10° 21° (NNE) 2,507 6.6 -24.0°
Sets 23:26:24 0° 26° (NNE) 3,447 7.5 -24.0°
